Time,TemperatureF,DewpointF,PressureIn,WindDirection,WindDirectionDegrees,WindSpeedMPH,WindSpeedGustMPH,Humidity,HourlyPrecipIn,Conditions,Clouds,dailyrainin,SoftwareType,DateUTC
2013-02-08 00:00:00,78.0,-99.9,29.86,NE,50,22.0,-999.0,-999,-99.99,,,-99.99,,2013-02-08 08:00:00,
2013-02-08 00:22:00,78.0,-99.9,29.86,NE,50,22.0,-999.0,-999,-99.99,,,-99.99,,2013-02-08 08:22:00,
2013-02-08 00:32:00,78.0,-99.9,29.86,NE,50,22.0,-999.0,-999,-99.99,,,-99.99,,2013-02-08 08:32:00,
2013-02-08 00:42:00,78.0,-99.9,29.86,NE,50,22.0,-999.0,-999,-99.99,,,-99.99,,2013-02-08 08:42:00,
2013-02-08 00:52:00,78.0,-99.9,29.86,NE,50,22.0,-999.0,-999,-99.99,,,-99.99,,2013-02-08 08:52:00,
2013-02-08 01:00:00,78.0,-99.9,29.88,NE,50,18.0,-999.0,-999,-99.99,,,-99.99,,2013-02-08 09:00:00,
2013-02-08 01:22:00,78.0,-99.9,29.88,NE,50,18.0,-999.0,-999,-99.99,,,-99.99,,2013-02-08 09:22:00,
2013-02-08 01:32:00,78.0,-99.9,29.88,NE,50,18.0,-999.0,-999,-99.99,,,-99.99,,2013-02-08 09:32:00,
2013-02-08 01:42:00,78.0,-99.9,29.88,NE,50,18.0,-999.0,-999,-99.99,,,-99.99,,2013-02-08 09:42:00,
2013-02-08 01:52:00,78.0,-99.9,29.88,NE,50,18.0,-999.0,-999,-99.99,,,-99.99,,2013-02-08 09:52:00,
2013-02-08 02:00:00,79.0,-99.9,29.90,SE,130,15.0,-999.0,-999,-99.99,,,-99.99,,2013-02-08 10:00:00,
2013-02-08 02:22:00,79.0,-99.9,29.90,SE,130,15.0,-999.0,-999,-99.99,,,-99.99,,2013-02-08 10:22:00,
2013-02-08 02:32:00,79.0,-99.9,29.90,SE,130,15.0,-999.0,-999,-99.99,,,-99.99,,2013-02-08 10:32:00,
2013-02-08 02:42:00,79.0,-99.9,29.90,SE,130,15.0,-999.0,-999,-99.99,,,-99.99,,2013-02-08 10:42:00,
2013-02-08 02:52:00,79.0,-99.9,29.90,SE,130,15.0,-999.0,-999,-99.99,,,-99.99,,2013-02-08 10:52:00,
2013-02-08 03:00:00,78.0,-99.9,29.91,East,90,15.0,-999.0,-999,-99.99,,,-99.99,,2013-02-08 11:00:00,
2013-02-08 03:22:00,78.0,-99.9,29.91,East,90,15.0,-999.0,-999,-99.99,,,-99.99,,2013-02-08 11:22:00,
2013-02-08 03:32:00,78.0,-99.9,29.91,East,90,15.0,-999.0,-999,-99.99,,,-99.99,,2013-02-08 11:32:00,
2013-02-08 03:42:00,78.0,-99.9,29.91,East,90,15.0,-999.0,-999,-99.99,,,-99.99,,2013-02-08 11:42:00,
2013-02-08 03:53:00,78.0,-99.9,29.91,East,90,15.0,-999.0,-999,-99.99,,,-99.99,,2013-02-08 11:53:00,
2013-02-08 04:00:00,77.0,-99.9,29.94,SE,130,17.0,-999.0,-999,-99.99,,,-99.99,,2013-02-08 12:00:00,
2013-02-08 04:22:00,77.0,-99.9,29.94,SE,130,17.0,-999.0,-999,-99.99,,,-99.99,,2013-02-08 12:22:00,
2013-02-08 04:33:00,77.0,-99.9,29.94,SE,130,17.0,-999.0,-999,-99.99,,,-99.99,,2013-02-08 12:33:00,
2013-02-08 04:42:00,77.0,-99.9,29.94,SE,130,17.0,-999.0,-999,-99.99,,,-99.99,,2013-02-08 12:42:00,
2013-02-08 04:53:00,77.0,-99.9,29.94,SE,130,17.0,-999.0,-999,-99.99,,,-99.99,,2013-02-08 12:53:00,
2013-02-08 05:00:00,78.0,-99.9,29.94,ESE,120,14.0,-999.0,-999,-99.99,,,-99.99,,2013-02-08 13:00:00,
2013-02-08 05:22:00,78.0,-99.9,29.94,ESE,120,14.0,-999.0,-999,-99.99,,,-99.99,,2013-02-08 13:22:00,
2013-02-08 05:33:00,78.0,-99.9,29.94,ESE,120,14.0,-999.0,-999,-99.99,,,-99.99,,2013-02-08 13:33:00,
2013-02-08 05:43:00,78.0,-99.9,29.94,ESE,120,14.0,-999.0,-999,-99.99,,,-99.99,,2013-02-08 13:43:00,
2013-02-08 05:52:00,78.0,-99.9,29.94,ESE,120,14.0,-999.0,-999,-99.99,,,-99.99,,2013-02-08 13:52:00,
2013-02-08 06:00:00,79.0,-99.9,29.92,SE,130,15.0,-999.0,-999,-99.99,,,-99.99,,2013-02-08 14:00:00,
2013-02-08 06:22:00,79.0,-99.9,29.92,SE,130,15.0,-999.0,-999,-99.99,,,-99.99,,2013-02-08 14:22:00,
2013-02-08 06:33:00,79.0,-99.9,29.92,SE,130,15.0,-999.0,-999,-99.99,,,-99.99,,2013-02-08 14:33:00,
2013-02-08 06:42:00,79.0,-99.9,29.92,SE,130,15.0,-999.0,-999,-99.99,,,-99.99,,2013-02-08 14:42:00,
2013-02-08 06:52:00,79.0,-99.9,29.92,SE,130,15.0,-999.0,-999,-99.99,,,-99.99,,2013-02-08 14:52:00,
2013-02-08 07:00:00,79.0,-99.9,29.91,ENE,60,22.0,-999.0,-999,-99.99,,,-99.99,,2013-02-08 15:00:00,
2013-02-08 07:22:00,79.0,-99.9,29.91,ENE,60,22.0,-999.0,-999,-99.99,,,-99.99,,2013-02-08 15:22:00,
2013-02-08 07:32:00,79.0,-99.9,29.91,ENE,60,22.0,-999.0,-999,-99.99,,,-99.99,,2013-02-08 15:32:00,
2013-02-08 07:42:00,79.0,-99.9,29.91,ENE,60,22.0,-999.0,-999,-99.99,,,-99.99,,2013-02-08 15:42:00,
2013-02-08 07:52:00,79.0,-99.9,29.91,ENE,60,22.0,-999.0,-999,-99.99,,,-99.99,,2013-02-08 15:52:00,
2013-02-08 08:00:00,78.0,-99.9,29.89,East,80,15.0,-999.0,-999,-99.99,,,-99.99,,2013-02-08 16:00:00,
2013-02-08 08:22:00,78.0,-99.9,29.89,East,80,15.0,-999.0,-999,-99.99,,,-99.99,,2013-02-08 16:22:00,
2013-02-08 08:33:00,78.0,-99.9,29.89,East,80,15.0,-999.0,-999,-99.99,,,-99.99,,2013-02-08 16:33:00,
2013-02-08 08:42:00,78.0,-99.9,29.89,East,80,15.0,-999.0,-999,-99.99,,,-99.99,,2013-02-08 16:42:00,
2013-02-08 08:52:00,78.0,-99.9,29.89,East,80,15.0,-999.0,-999,-99.99,,,-99.99,,2013-02-08 16:52:00,
2013-02-08 09:00:00,79.0,-99.9,29.86,ENE,60,22.0,-999.0,-999,-99.99,,,-99.99,,2013-02-08 17:00:00,
2013-02-08 09:23:00,79.0,-99.9,29.86,ENE,60,22.0,-999.0,-999,-99.99,,,-99.99,,2013-02-08 17:23:00,
2013-02-08 09:33:00,79.0,-99.9,29.86,ENE,60,22.0,-999.0,-999,-99.99,,,-99.99,,2013-02-08 17:33:00,
2013-02-08 09:42:00,79.0,-99.9,29.86,ENE,60,22.0,-999.0,-999,-99.99,,,-99.99,,2013-02-08 17:42:00,
2013-02-08 09:53:00,79.0,-99.9,29.86,ENE,60,22.0,-999.0,-999,-99.99,,,-99.99,,2013-02-08 17:53:00,
2013-02-08 10:00:00,79.0,-99.9,29.84,NE,40,21.0,-999.0,-999,-99.99,,,-99.99,,2013-02-08 18:00:00,
2013-02-08 10:25:00,79.0,-99.9,29.84,NE,40,21.0,-999.0,-999,-99.99,,,-99.99,,2013-02-08 18:25:00,
2013-02-08 10:36:00,79.0,-99.9,29.84,NE,40,21.0,-999.0,-999,-99.99,,,-99.99,,2013-02-08 18:36:00,
2013-02-08 10:44:00,79.0,-99.9,29.84,NE,40,21.0,-999.0,-999,-99.99,,,-99.99,,2013-02-08 18:44:00,
2013-02-08 10:53:00,79.0,-99.9,29.84,NE,40,21.0,-999.0,-999,-99.99,,,-99.99,,2013-02-08 18:53:00,
2013-02-08 11:00:00,78.0,-99.9,29.85,NE,50,28.0,-999.0,-999,-99.99,,,-99.99,,2013-02-08 19:00:00,
2013-02-08 11:22:00,78.0,-99.9,29.85,NE,50,28.0,-999.0,-999,-99.99,,,-99.99,,2013-02-08 19:22:00,
2013-02-08 11:33:00,78.0,-99.9,29.85,NE,50,28.0,-999.0,-999,-99.99,,,-99.99,,2013-02-08 19:33:00,
2013-02-08 11:42:00,78.0,-99.9,29.85,NE,50,28.0,-999.0,-999,-99.99,,,-99.99,,2013-02-08 19:42:00,
2013-02-08 11:52:00,78.0,-99.9,29.85,NE,50,28.0,-999.0,-999,-99.99,,,-99.99,,2013-02-08 19:52:00,
2013-02-08 12:00:00,78.0,-99.9,29.85,NNE,30,23.0,-999.0,-999,-99.99,,,-99.99,,2013-02-08 20:00:00,
2013-02-08 12:22:00,78.0,-99.9,29.85,NNE,30,23.0,-999.0,-999,-99.99,,,-99.99,,2013-02-08 20:22:00,
2013-02-08 12:32:00,78.0,-99.9,29.85,NNE,30,23.0,-999.0,-999,-99.99,,,-99.99,,2013-02-08 20:32:00,
2013-02-08 12:42:00,78.0,-99.9,29.85,NNE,30,23.0,-999.0,-999,-99.99,,,-99.99,,2013-02-08 20:42:00,
2013-02-08 12:53:00,78.0,-99.9,29.85,NNE,30,23.0,-999.0,-999,-99.99,,,-99.99,,2013-02-08 20:53:00,
2013-02-08 13:00:00,78.0,-99.9,29.87,ESE,120,14.0,-999.0,-999,-99.99,,,-99.99,,2013-02-08 21:00:00,
2013-02-08 13:22:00,78.0,-99.9,29.87,ESE,120,14.0,-999.0,-999,-99.99,,,-99.99,,2013-02-08 21:22:00,
2013-02-08 13:33:00,78.0,-99.9,29.87,ESE,120,14.0,-999.0,-999,-99.99,,,-99.99,,2013-02-08 21:33:00,
2013-02-08 13:42:00,78.0,-99.9,29.87,ESE,120,14.0,-999.0,-999,-99.99,,,-99.99,,2013-02-08 21:42:00,
2013-02-08 13:52:00,78.0,-99.9,29.87,ESE,120,14.0,-999.0,-999,-99.99,,,-99.99,,2013-02-08 21:52:00,
2013-02-08 14:00:00,78.0,-99.9,29.89,NE,50,14.0,-999.0,-999,-99.99,,,-99.99,,2013-02-08 22:00:00,
2013-02-08 14:22:00,78.0,-99.9,29.89,NE,50,14.0,-999.0,-999,-99.99,,,-99.99,,2013-02-08 22:22:00,
2013-02-08 14:32:00,78.0,-99.9,29.89,NE,50,14.0,-999.0,-999,-99.99,,,-99.99,,2013-02-08 22:32:00,
2013-02-08 14:42:00,78.0,-99.9,29.89,NE,50,14.0,-999.0,-999,-99.99,,,-99.99,,2013-02-08 22:42:00,
2013-02-08 14:52:00,78.0,-99.9,29.89,NE,50,14.0,-999.0,-999,-99.99,,,-99.99,,2013-02-08 22:52:00,
2013-02-08 15:00:00,78.0,-99.9,29.91,NE,50,23.0,-999.0,-999,-99.99,,,-99.99,,2013-02-08 23:00:00,
2013-02-08 15:22:00,78.0,-99.9,29.91,NE,50,23.0,-999.0,-999,-99.99,,,-99.99,,2013-02-08 23:22:00,
2013-02-08 15:32:00,78.0,-99.9,29.91,NE,50,23.0,-999.0,-999,-99.99,,,-99.99,,2013-02-08 23:32:00,
2013-02-08 15:42:00,78.0,-99.9,29.91,NE,50,23.0,-999.0,-999,-99.99,,,-99.99,,2013-02-08 23:42:00,
2013-02-08 15:52:00,78.0,-99.9,29.91,NE,50,23.0,-999.0,-999,-99.99,,,-99.99,,2013-02-08 23:52:00,
2013-02-08 16:00:00,78.0,-99.9,29.92,SE,130,18.0,-999.0,-999,-99.99,,,-99.99,,2013-02-09 00:00:00,
2013-02-08 16:22:00,78.0,-99.9,29.92,SE,130,18.0,-999.0,-999,-99.99,,,-99.99,,2013-02-09 00:22:00,
2013-02-08 16:32:00,78.0,-99.9,29.92,SE,130,18.0,-999.0,-999,-99.99,,,-99.99,,2013-02-09 00:32:00,
2013-02-08 16:42:00,78.0,-99.9,29.92,SE,130,18.0,-999.0,-999,-99.99,,,-99.99,,2013-02-09 00:42:00,
2013-02-08 16:52:00,78.0,-99.9,29.92,SE,130,18.0,-999.0,-999,-99.99,,,-99.99,,2013-02-09 00:52:00,
2013-02-08 17:00:00,78.0,-99.9,29.93,NE,40,22.0,-999.0,-999,-99.99,,,-99.99,,2013-02-09 01:00:00,
2013-02-08 17:22:00,78.0,-99.9,29.93,NE,40,22.0,-999.0,-999,-99.99,,,-99.99,,2013-02-09 01:22:00,
2013-02-08 17:32:00,78.0,-99.9,29.93,NE,40,22.0,-999.0,-999,-99.99,,,-99.99,,2013-02-09 01:32:00,
2013-02-08 17:42:00,78.0,-99.9,29.93,NE,40,22.0,-999.0,-999,-99.99,,,-99.99,,2013-02-09 01:42:00,
2013-02-08 17:52:00,78.0,-99.9,29.93,NE,40,22.0,-999.0,-999,-99.99,,,-99.99,,2013-02-09 01:52:00,
2013-02-08 18:00:00,78.0,-99.9,29.93,ENE,60,28.0,-999.0,-999,-99.99,,,-99.99,,2013-02-09 02:00:00,
2013-02-08 18:22:00,78.0,-99.9,29.93,ENE,60,28.0,-999.0,-999,-99.99,,,-99.99,,2013-02-09 02:22:00,
2013-02-08 18:32:00,78.0,-99.9,29.93,ENE,60,28.0,-999.0,-999,-99.99,,,-99.99,,2013-02-09 02:32:00,
2013-02-08 18:42:00,78.0,-99.9,29.93,ENE,60,28.0,-999.0,-999,-99.99,,,-99.99,,2013-02-09 02:42:00,
2013-02-08 18:53:00,78.0,-99.9,29.93,ENE,60,28.0,-999.0,-999,-99.99,,,-99.99,,2013-02-09 02:53:00,
2013-02-08 19:00:00,78.0,-99.9,29.93,NE,50,22.0,-999.0,-999,-99.99,,,-99.99,,2013-02-09 03:00:00,
2013-02-08 19:22:00,78.0,-99.9,29.93,NE,50,22.0,-999.0,-999,-99.99,,,-99.99,,2013-02-09 03:22:00,
2013-02-08 19:32:00,78.0,-99.9,29.93,NE,50,22.0,-999.0,-999,-99.99,,,-99.99,,2013-02-09 03:32:00,
2013-02-08 19:42:00,78.0,-99.9,29.93,NE,50,22.0,-999.0,-999,-99.99,,,-99.99,,2013-02-09 03:42:00,
2013-02-08 19:53:00,78.0,-99.9,29.93,NE,50,22.0,-999.0,-999,-99.99,,,-99.99,,2013-02-09 03:53:00,
2013-02-08 20:00:00,78.0,-99.9,29.91,ESE,120,14.0,-999.0,-999,-99.99,,,-99.99,,2013-02-09 04:00:00,
2013-02-08 20:24:00,78.0,-99.9,29.91,ESE,120,14.0,-999.0,-999,-99.99,,,-99.99,,2013-02-09 04:24:00,
2013-02-08 20:32:00,78.0,-99.9,29.91,ESE,120,14.0,-999.0,-999,-99.99,,,-99.99,,2013-02-09 04:32:00,
2013-02-08 20:43:00,78.0,-99.9,29.91,ESE,120,14.0,-999.0,-999,-99.99,,,-99.99,,2013-02-09 04:43:00,
2013-02-08 20:53:00,78.0,-99.9,29.91,ESE,120,14.0,-999.0,-999,-99.99,,,-99.99,,2013-02-09 04:53:00,
2013-02-08 21:00:00,78.0,-99.9,29.90,ESE,110,14.0,-999.0,-999,-99.99,,,-99.99,,2013-02-09 05:00:00,
2013-02-08 21:32:00,78.0,-99.9,29.90,ESE,110,14.0,-999.0,-999,-99.99,,,-99.99,,2013-02-09 05:32:00,
2013-02-08 21:42:00,78.0,-99.9,29.90,ESE,110,14.0,-999.0,-999,-99.99,,,-99.99,,2013-02-09 05:42:00,
2013-02-08 21:52:00,78.0,-99.9,29.90,ESE,110,14.0,-999.0,-999,-99.99,,,-99.99,,2013-02-09 05:52:00,
2013-02-08 22:00:00,78.0,-99.9,29.89,ENE,60,21.0,-999.0,-999,-99.99,,,-99.99,,2013-02-09 06:00:00,
2013-02-08 22:22:00,78.0,-99.9,29.89,ENE,60,21.0,-999.0,-999,-99.99,,,-99.99,,2013-02-09 06:22:00,
2013-02-08 22:32:00,78.0,-99.9,29.89,ENE,60,21.0,-999.0,-999,-99.99,,,-99.99,,2013-02-09 06:32:00,
2013-02-08 22:42:00,78.0,-99.9,29.89,ENE,60,21.0,-999.0,-999,-99.99,,,-99.99,,2013-02-09 06:42:00,
2013-02-08 22:52:00,78.0,-99.9,29.89,ENE,60,21.0,-999.0,-999,-99.99,,,-99.99,,2013-02-09 06:52:00,
2013-02-08 23:00:00,78.0,-99.9,29.88,NE,40,24.0,-999.0,-999,-99.99,,,-99.99,,2013-02-09 07:00:00,
2013-02-08 23:22:00,78.0,-99.9,29.88,NE,40,24.0,-999.0,-999,-99.99,,,-99.99,,2013-02-09 07:22:00,
2013-02-08 23:32:00,78.0,-99.9,29.88,NE,40,24.0,-999.0,-999,-99.99,,,-99.99,,2013-02-09 07:32:00,
2013-02-08 23:42:00,78.0,-99.9,29.88,NE,40,24.0,-999.0,-999,-99.99,,,-99.99,,2013-02-09 07:42:00,
2013-02-08 23:52:00,78.0,-99.9,29.88,NE,40,24.0,-999.0,-999,-99.99,,,-99.99,,2013-02-09 07:52:00,